Home   Weather   Portland   Past weeks
Flag for USA

Past Weather in Portland, Maine, USA — Yesterday and Last 2 Weeks

Now
59 °F

More clouds than sun.


Feels Like: 58 °F
Forecast: 61 / 49 °F
Wind: 6 mph from South

Location: Portland - Portland International Jetport

Current Time: May 25, 2019 at 7:20:53 pm

Latest Report: May 25, 2019 at 6:51 pm


Visibility: 10 mi

Pressure: 30.06 "Hg

Humidity: 58%

Dew Point: 44 °F

Location of PortlandLocation

Past Weather in Portland — Graph

°F

Portland Temperature Yesterday

Maximum temperature yesterday: 62 °F (at 2:51 pm)
Minimum temperature yesterday: 48 °F (at 11:51 pm)
Average temperature yesterday: 57 °F

High & Low Weather Summary for the Past Weeks

 TemperatureHumidityPressure
High74 °F (May 20, 3:51 pm)97% (May 11, 5:51 am)30.24 "Hg (May 11, 5:51 am)
Low39 °F (May 14, 6:51 am)34% (May 11, 4:51 pm)29.54 "Hg (May 24, 4:51 am)
Average53 °F70%29.89 "Hg
* Reported May 10 5:51 pm — May 25 5:51 pm, Portland. Weather by CustomWeather, © 2019

Note: Actual official high and low records may vary slightly from our data, if they occured in-between our weather recording intervals... More about our weather records

Advertising

Portland Weather History for the Previous 24 Hours

Scroll right to see more
 ConditionsComfort  
Time TempWeatherWind HumidityBarometerVisibility
5:51 pm
Sat, May 25
61 °FBroken clouds.12 mph54%30.07 "Hg10 mi
4:51 pm62 °FMore clouds than sun.10 mph52%30.09 "Hg10 mi
3:51 pm65 °FOvercast.10 mph49%30.11 "Hg10 mi
2:51 pm67 °FPartly sunny.14 mph44%30.13 "Hg10 mi
1:51 pm70 °FScattered clouds.10 mph42%30.14 "Hg10 mi
12:51 pm70 °FScattered clouds.10 mph41%30.15 "Hg10 mi
11:51 am69 °FScattered clouds.10 mph45%30.16 "Hg10 mi
10:51 am69 °FScattered clouds.5 mph45%30.17 "Hg10 mi
9:51 am67 °FScattered clouds.5 mph51%30.18 "Hg10 mi
8:51 am63 °FPartly sunny.5 mph58%30.17 "Hg10 mi
7:51 am57 °FSunny.5 mph69%30.16 "Hg10 mi
6:51 am52 °FSunny.6 mph77%30.16 "Hg10 mi
5:51 am47 °FSunny.6 mph86%30.14 "Hg10 mi
4:51 am47 °FPassing clouds.6 mph86%30.13 "Hg10 mi
3:51 am46 °FClear.5 mph86%30.11 "Hg10 mi
2:51 am46 °FClear.5 mph86%30.10 "Hg10 mi
1:51 am47 °FClear.3 mph86%30.10 "Hg10 mi
12:51 am47 °FClear.3 mph86%30.10 "Hg10 mi
11:51 pm
Fri, May 24
48 °FClear.No wind86%30.11 "Hg10 mi
10:51 pm49 °FPassing clouds.5 mph80%30.10 "Hg10 mi
9:51 pm53 °FPassing clouds.No wind74%30.09 "Hg10 mi
8:51 pm55 °FPassing clouds.5 mph67%30.08 "Hg10 mi
7:51 pm58 °FPartly sunny.5 mph62%30.04 "Hg10 mi
Weather by CustomWeather, © 2019

See weather overview